STARLINK-4208, 52844

Orbit data source: Space-Track

STARLINK-4208, 52844 is a payload satellite owned by SpaceX/Seattle (US) in LEO that was launched on Fri, 17 Jun 2022 UTC via an FALCON 9 launch vehicle from the Air Force Eastern Test Range (AFETR). Payload-class satellites include a variety of spacecraft equipped with specific instruments for various scientific and technological missions. These include communications satellites like Starlink; space stations such as the ISS; scientific satellites like the Hubble; Earth observation satellites from companies like Planet Labs, Umbra, and HawkEye 360; GPS; miniature CubeSats for education and research; and military/defense satellites.

Loading next visibility...
Identifier
52844, 2022-062Q
Orbit
LEO
Country
Flag of USUS
Related business
Manufacturer
SpaceX/Seattle
Mission
Operational Commercial Communications
Bus & Motor
STARLINK, Unknown motor
Mass
297 kg wet, ~275 kg dry
Launch date (UTC)
2022-06-17 (3 years ago)
Launch vehicle
FALCON 9
Launch site
Air Force Eastern Test Range (AFETR)
Object type
Payload
Rocket body
Debris
Shape & HBR
Box + 1 Pan, 10.1 m
Radar Cross Section
13.562 m², Large (>1 m²)

Expand to show TLE details & history
Last TLE update: 19 hours ago

TLE from 19 hours ago
0 STARLINK-4208
1 52844U 22062Q   25348.88186383 -.00005354  00000-0 -31854-3 0  9995
2 52844  53.2176  54.8380 0000724 101.2770 258.8304 15.08840715192986
Epoch: 2025-12-14T21:09Z
TLE epoch observation values (Epoch: 2025-12-14T21:09:53.034Z)
Latitude
-0.00001°
Longitude
13.57861°
Altitude
540.736 km
Speed
7.593 km/s
True Right ascension
03h 39m 21s
True Declination
0° 00' 00"
Sunlit
Object was in full shadow at epoch
Visualization orbit readout
Latitude
Unknown
Longitude
Unknown
Altitude
Unknown
Speed
Unknown
Apparent Right ascension
Unknown
Apparent Declination
Unknown
Sunlit
N/A
Visualization observer readout
Local Sidereal Time
15:08:16
Azimuth
Unknown
Elevation
Unknown
Doppler factor
Unknown
Orbital elements
Apogee altitude
540.487 km
Perigee altitude
539.485 km
Semi-major axis
6,918.123 km
Eccentricity
0.00007
Inclination
53.2176°
RAAN
54.838°
Arg. of periapsis
101.277°
True anomaly
258.82226°
Mean anomaly
258.8304°
Eccentric anomaly
258.82633°
Mean motion
3.7719 °/min
Orbital period
95.44 mins
BSTAR
-0.00031854
Loading maneuver chart data...
Computing Atmospheric mass density...
Loading historical data...
Loading historical data...
Loading historical data...
Loading historical data...
Loading historical data...
Loading historical data...
Loading historical data...

Documentation

Showing up to 5 results
|